Regional Weather Roundup
Issued by NWS Sioux Falls, SD

Home | Current Version | Previous Version | Text Only | Print | Product List | Glossary On
Versions: 1 2 3 4 5 6 7 8 9 10 11 12 13 14 15 16 17 18 19 20 21 22 23 24 25 26 27 28 29 30 31 32 33 34 35 36 37 38 39 40 41 42 43 44 45 46 47 48 49 50
000
ASUS43 KFSD 141310
RWRFSD

WEATHER ROUNDUP FOR SE SOUTH DAKOTA/SW MINNESOTA/NW IOWA
NATIONAL WEATHER SERVICE SIOUX FALLS SD
700 AM CST SUN FEB 14 2016

NOTE: "FAIR" INDICATES FEW OR NO CLOUDS BELOW 12,000 FEET WITH NO
SIGNIFICANT WEATHER AND OR OBSTRUCTIONS TO VISIBILITY.


SDZ038>040-050-052>070-141400-
SOUTHEAST SOUTH DAKOTA

CITY           SKY/WX    TMP DP  RH WIND       PRES   REMARKS
BROOKINGS      LGT SNOW  12   8  84 S15       29.85F FOG     WCI  -4
CHAMBERLAIN    LGT SNOW  23  22  96 CALM      29.81S
HURON          CLOUDY    15  11  83 S10       29.85S WCI   2
MADISON        CLOUDY    12  12 100 S12       29.84F WCI  -2
MITCHELL       CLOUDY    16  13  88 SE10      29.86S WCI   4
SIOUX FALLS    CLOUDY    14  10  84 SE10      29.87F WCI   1
WINNER         CLOUDY    38  31  76 NW16G25   29.82R
YANKTON        CLOUDY    18  12  79 E8        29.85S WCI   7
$$

MNZ071-072-080-081-089-090-097-098-141400-
SOUTHWEST MINNESOTA

CITY           SKY/WX    TMP DP  RH WIND       PRES   REMARKS
FAIRMONT       CLOUDY    14   9  79 SE17      29.97F VSB 1   WCI  -3
JACKSON        LGT SNOW  14  10  85 SE15      29.94F WCI  -1
LUVERNE        CLOUDY    16  12  86 SE13      29.90S WCI   2
MARSHALL       FLURRIES  14   9  80 S17       29.93F WCI  -3
MONTEVIDEO     LGT SNOW  12  10  92 S13       29.97F WCI  -3
PIPESTONE      LGT SNOW  16   7  67 S12       29.86S WCI   3
REDWOOD FALLS  CLOUDY    13  10  88 SE18      29.98F FOG     WCI  -4
TRACY          LGT SNOW  15  11  85 S14       29.92F WCI   0
WINDOM         LGT SNOW  12  10  92 SE17      29.93F VSB 3/4 WCI  -5
WORTHINGTON    CLOUDY    12   7  79 SE15      29.91F WCI  -4
$$

IAZ001>003-012>014-020>022-031-032-NEZ013-014-SDZ071-141400-
NORTHWEST IOWA

CITY           SKY/WX    TMP DP  RH WIND       PRES   REMARKS
CHEROKEE       LGT SNOW  15  14  93 SE12G17   29.93F VSB 1   WCI   2
DENISON        LGT SNOW  18  14  86 S13       29.90F WCI   4
ESTHERVILLE    FOG       13  11  92 SE23      29.95F VSB 3/4 WCI  -6
LE MARS        CLOUDY    18  16  93 SE13G18   29.91S FOG     WCI   4
ORANGE CITY    LGT SNOW  16  14  93 SE10      29.89S WCI   3
SHELDON        LGT SNOW  14  12  92 SE16      29.89F WCI  -2
SIOUX CITY     CLOUDY    19  12  74 SE14      29.90S WCI   6
SPENCER        LGT SNOW  13   8  81 SE18      29.94F VSB 3/4 WCI  -4
STORM LAKE     CLOUDY    14  14 100 SE20      29.91F WCI  -3
$$

ABBREVIATIONS USED IN REMARKS
   TC - TEMPERATURE IN CELSIUS
  WCI - WIND CHILL INDEX
   HX - HEAT INDEX
  VSB - VISIBILITY




USA.gov is the U.S. government's official web portal to all federal, state and local government web resources and services.